Location: Fernhill
(41.0167°S, 175.6333°E)
Time: 05:58:38
(UTC+00:00)

ATLAS 5 CENTAUR R/B - Pass Details

Date: 08 November 2025
Orbit: 373 x 1090 km, 63.3° (Epoch: 11 December)

Event Time Altitude Azimuth Distance (km) Brightness Sun altitude
Exits shadow 11:16:02 60° 102° (ESE) 1,245 2.9 -31.3°
Drops below altitude 10° 11:22:03 10° 140° (SE) 2,895 5.4 -31.6°
Sets 11:24:38 0° 142° (SE) 3,793 6.1 -31.6°
